Regional Weather Roundup
Issued by NWS

Home | Current Version | Previous Version | Graphics & Text | Print | Product List | Glossary On
Versions: 1 2 3 4 5 6 7 8 9 10 11 12 13 14 15 16 17 18 19 20 21 22 23 24 25 26 27 28 29 30 31 32 33 34 35 36 37 38 39 40 41 42 43 44 45 46 47 48 49 50
992
ASUS45 KTFX 230710
RWRMT
MONTANA REGIONAL WEATHER ROUNDUP
NATIONAL WEATHER SERVICE GREAT FALLS MT
100 AM MDT FRI JUN 23 2017

NOTE: "FAIR" INDICATES FEW OR NO CLOUDS BELOW 12000 FEET WITH NO
SIGNIFICANT WEATHER AND/OR OBSTRUCTIONS TO VISIBILITY.

MTZ001>007-043-230800-
WEST OF THE DIVIDE

CITY           SKY/WX    TMP DP  RH WIND       PRES   REMARKS
KALISPELL      CLEAR     44  41  89 CALM      30.20R
MISSOULA       CLEAR     49  37  63 N3        30.23R
BUTTE          CLEAR     45  31  58 CALM      30.31S
MULLAN PASS    CLEAR     47  27  45 NW6       30.31R
DEER LODGE       N/A     46  36  66 W3        30.30S
EUREKA           N/A     50  37  62 MISG        N/A
$$

MTZ008-052>055-230800-
SOUTHWEST MONTANA

CITY           SKY/WX    TMP DP  RH WIND       PRES   REMARKS
BOZEMAN        CLEAR     49  35  58 W8        30.29S
DILLON         CLEAR     44  31  60 SE9       30.27F
W YELLOWSTONE  CLEAR     43  27  52 NE5       30.32R
ENNIS          CLEAR     46  34  61 N14       30.32F
THREE FORKS      N/A     40  33  76 CALM      30.25S
$$

MTZ009-010-012-014-046-048-049-054-230800-
EAST SLOPES AND CENTRAL MONTANA

CITY           SKY/WX    TMP DP  RH WIND       PRES   REMARKS
CUT BANK       PTCLDY    41  36  82 NW5       30.28S
GREAT FALLS    CLEAR     49  36  61 E6        30.28F
MALMSTROM AFB  CLEAR     41  37  87 S5        30.28S
HELENA         CLEAR     49  36  61 CALM      30.27F
CHOTEAU          N/A     46  37  71 CALM      30.30S
$$

MTZ011-013-016-021-045-047-050-051-230800-
NORTH CENTRAL MONTANA

CITY           SKY/WX    TMP DP  RH WIND       PRES   REMARKS
HAVRE          CLEAR     38  34  85 S6        30.24S
LEWISTOWN      CLEAR     42  35  76 SW8       30.29S
N BAR RANCH      N/A     45  34  65 NW7       30.29S
CHINOOK          N/A     41  36  81 W3        30.23S
FORT BENTON      N/A     45  37  76 CALM      30.29S
$$

MTZ017>020-022>027-061-062-230800-
NORTHEAST MONTANA

CITY           SKY/WX    TMP DP  RH WIND       PRES   REMARKS
GLASGOW        PTCLDY    50  41  71 W10       30.16R
JORDAN           N/A     48  38  68 NW9       30.21R
SIDNEY         CLOUDY    54  46  74 NW14      30.09S
WOLF POINT     PTCLDY    50  43  77 W8        30.14R
MALTA          PTCLDY    45  39  81 W7        30.21R
PLENTYWOOD       N/A     46  43  87 NW10      30.07R
POPLAR           N/A     50  45  81 W10       30.13R
$$

MTZ028>42-056>058-230800-
SOUTHCENTRAL AND SOUTHEAST MONTANA

CITY           SKY/WX    TMP DP  RH WIND       PRES   REMARKS
BAKER          CLOUDY    51  44  77 NW15G26   30.14R
BILLINGS       PTCLDY    52  35  52 N6        30.28S
LIVINGSTON     CLEAR     41  35  79 CALM      30.31R
MILES CITY     CLOUDY    56  39  53 NW14      30.20R
BIG TIMBER     PTCLDY    46  34  61 CALM      30.34S
FORSYTH          N/A     55  41  58 W6        30.23R
ROUNDUP          N/A     51  32  48 W2        30.16F
$$

REGIONAL REPORTS...DAKOTAS

CITY           SKY/WX    TMP DP  RH WIND       PRES   REMARKS
WILLISTON      CLOUDY    54  45  71 NW13      30.05R
MINOT          CLOUDY    56  49  77 W22G31    29.91R
DICKINSON      CLOUDY    52  45  77 NW25      30.02R
BEACH          CLOUDY    52  46  82 NW20G26   30.13S
CROSBY         CLOUDY    52  48  87 NW13      30.01F
TIOGA          CLOUDY    50  50 100 NW21G31   30.02R
WATFORD CITY   CLOUDY    54  46  76 NW20G29   30.04R
BISMARCK       CLOUDY    59  52  77 NW18G28   29.94R
GRAND FORKS    PTCLDY    59  51  75 W12       29.69S
FARGO          CLEAR     59  46  62 W10       29.74F
BUFFALO SD       N/A     54  43  66 NW25G35   30.07R
RAPID CITY     CLOUDY    58  35  42 N18       30.12R
$$

REGIONAL REPORTS...WYOMING/IDAHO/WASHINGTON

CITY           SKY/WX    TMP DP  RH WIND       PRES   REMARKS
GILLETTE       CLOUDY    53  35  50 N14       30.26R
SHERIDAN       CLOUDY    50  39  66 W7        30.28R
BUFFALO WY     LGT RAIN  47  38  71 NW15      30.29R
CODY           CLEAR     49  36  61 NW7       30.33S
YELLOWSTONE LA   N/A     37  29  72 CALM      30.37R
IDAHO FALLS    CLEAR     52  38  58 N8        30.19R
SALMON         CLEAR     52  30  43 S3        30.22S
BOISE          CLEAR     65  32  29 W9        30.10R
SPOKANE        CLEAR     59  38  45 SW6       30.21S
$$

REGIONAL REPORTS...ALBERTA

CITY           SKY/WX    TMP DP  RH WIND       PRES   REMARKS
EDMONTON       CLEAR     45  39  81 W6        30.20S
CALGARY        LGT RAIN  52  39  62 W6        30.28R FOG
LETHBRIDGE     CLOUDY    48  43  81 SW7       30.26S
MEDICINE HAT   CLEAR     43  37  81 SW3       30.22F
WATERTON GATE    N/A     39  37  93 SW1         N/A
MILK RIVER       N/A     43  39  87 NW5         N/A
$$

REGIONAL REPORTS...SASKATCHEWAN

CITY           SKY/WX    TMP DP  RH WIND       PRES   REMARKS
SWIFT CURRENT  CLEAR     39  37  93 W9        30.14S
REGINA         PTCLDY    48  37  66 NW16G23   30.04R
SASKATOON      CLEAR     39  37  93 W8        30.10R
VAL MARIE        N/A     39  36  87 W7          N/A
ROCKGLEN         N/A     43  37  81 NW13        N/A
ASSINIBOIA       N/A     46  39  76 W7          N/A
$$




USA.gov is the U.S. government's official web portal to all federal, state and local government web resources and services.